FW6919 Weather Reports


Display with metric or nautical units.
time (UTC)temp
F
wind
direction
speed
MPH
gust
MPH
rain 1hr
in
rain 24hr
in
rain mn
in
humidity
%
barometer
mb
20260503221111 81 228 6.0 17.0 0.00 0.00 0.00 35 1016.8
20260503220615 81 236 9.0 17.0 0.00 0.00 0.00 36 1016.9
20260503220111 81 192 15.0 16.0 0.00 0.00 0.00 35 1016.9
20260503215641 81 238 5.0 14.0 0.00 0.00 0.00 36 1017.0
20260503204511 81 190 4.0 18.0 0.00 0.00 0.00 35 1018.4
20260503204010 81 219 9.0 17.0 0.00 0.00 0.00 34 1018.5
20260503203513 81 182 8.0 18.0 0.00 0.00 0.00 36 1018.5
20260503203012 81 238 6.0 18.0 0.00 0.00 0.00 34 1018.6
20260503202513 81 219 6.0 17.0 0.00 0.00 0.00 34 1018.7
20260503202016 81 200 8.0 20.0 0.00 0.00 0.00 34 1018.8
20260503201511 81 188 6.0 20.0 0.00 0.00 0.00 35 1018.8
20260503201013 81 173 9.0 15.0 0.00 0.00 0.00 36 1018.8
20260503200511 81 159 4.0 16.0 0.00 0.00 0.00 35 1018.9
20260503200014 81 186 3.0 16.0 0.00 0.00 0.00 36 1019.0
20260503195512 81 178 10.0 14.0 0.00 0.00 0.00 35 1019.0
20260503195013 81 217 7.0 18.0 0.00 0.00 0.00 35 1019.1
20260503194514 81 209 7.0 18.0 0.00 0.00 0.00 35 1019.2
20260503194012 80 197 7.0 16.0 0.00 0.00 0.00 35 1019.2
20260503193514 80 167 4.0 16.0 0.00 0.00 0.00 37 1019.2
20260503193014 81 193 9.0 14.0 0.00 0.00 0.00 35 1019.4
20260503192511 81 200 7.0 14.0 0.00 0.00 0.00 34 1019.3
20260503192013 81 213 8.0 13.0 0.00 0.00 0.00 34 1019.5
20260503191512 81 244 7.0 10.0 0.00 0.00 0.00 38 1019.7
20260503191013 81 240 5.0 15.0 0.00 0.00 0.00 38 1019.7
20260503190512 81 226 3.0 15.0 0.00 0.00 0.00 38 1019.8
20260503190012 80 232 8.0 15.0 0.00 0.00 0.00 40 1019.9
20260503185512 80 209 6.0 16.0 0.00 0.00 0.00 39 1020.0
20260503185012 80 241 5.0 16.0 0.00 0.00 0.00 41 1020.1
20260503184511 80 222 3.0 16.0 0.00 0.00 0.00 41 1020.1
20260503184015 79 193 8.0 16.0 0.00 0.00 0.00 40 1020.3
20260503183510 79 212 7.0 16.0 0.00 0.00 0.00 39 1020.3
20260503183014 79 255 5.0 15.0 0.00 0.00 0.00 41 1020.4
20260503182512 79 237 7.0 15.0 0.00 0.00 0.00 41 1020.5
20260503182011 79 240 10.0 12.0 0.00 0.00 0.00 44 1020.6
20260503181513 79 226 7.0 18.0 0.00 0.00 0.00 44 1020.7
20260503181013 79 223 5.0 18.0 0.00 0.00 0.00 43 1020.9
20260503180513 79 227 8.0 15.0 0.00 0.00 0.00 41 1020.9
20260503180011 79 225 6.0 15.0 0.00 0.00 0.00 45 1020.9
20260503175514 79 240 3.0 16.0 0.00 0.00 0.00 42 1021.2
20260503175015 78 249 10.0 16.0 0.00 0.00 0.00 45 1021.2
20260503174511 78 250 8.0 16.0 0.00 0.00 0.00 45 1021.4
20260503174013 78 239 3.0 14.0 0.00 0.00 0.00 46 1021.3
20260503173512 78 226 3.0 14.0 0.00 0.00 0.00 46 1021.3
20260503173016 78 236 10.0 13.0 0.00 0.00 0.00 45 1021.4
20260503172511 78 261 7.0 12.0 0.00 0.00 0.00 46 1021.5
20260503172013 78 240 4.0 12.0 0.00 0.00 0.00 48 1021.6
20260503171514 78 190 9.0 12.0 0.00 0.00 0.00 47 1021.6
20260503171014 78 242 3.0 11.0 0.00 0.00 0.00 46 1021.7
20260503170512 78 261 6.0 12.0 0.00 0.00 0.00 45 1021.7
20260503150510 70 257 5.0 13.0 0.00 0.00 0.00 58 1022.2
20260503140312 65 234 3.0 7.0 0.00 0.00 0.00 64 1022.3
20260503131355 61 221 5.0 8.0 0.00 0.00 0.00 71 1022.0
20260503130934 61 234 3.0 7.0 0.00 0.00 0.00 71 1022.1
20260503130344 61 220 3.0 7.0 0.00 0.00 0.00 72 1022.0
20260503110528 58 223 4.0 7.0 0.00 0.00 0.00 73 1020.9
20260503090458 59 237 1.0 5.0 0.00 0.00 0.00 71 1020.8
20260503081530 60 234 3.0 6.0 0.00 0.00 0.00 67 1020.8
20260503080956 60 239 5.0 6.0 0.00 0.00 0.00 67 1020.9
20260503080454 60 227 3.0 6.0 0.00 0.00 0.00 67 1020.8
20260503072828 60 232 2.0 7.0 0.00 0.00 0.00 70 1021.1
20260503072325 59 220 3.0 9.0 0.00 0.00 0.00 70 1021.1
20260503071828 59 215 4.0 9.0 0.00 0.00 0.00 72 1021.1
20260503071255 59 221 4.0 5.0 0.00 0.00 0.00 73 1021.2
20260503070754 58 244 3.0 4.0 0.00 0.00 0.00 74 1021.2
20260503070323 58 245 1.0 4.0 0.00 0.00 0.00 74 1021.2
20260503060253 61 0 0.0 3.0 0.00 0.00 0.00 68 1021.1
20260503054754 61 248 3.0 5.0 0.00 0.00 0.00 67 1020.8
20260503054326 62 257 2.0 4.0 0.00 0.00 0.00 66 1020.9
20260503053749 62 257 2.0 4.0 0.00 0.00 0.00 66 1021.0
20260503053253 62 258 2.0 4.0 0.00 0.00 0.00 66 1021.0
20260503052827 62 259 4.0 4.0 0.00 0.00 0.00 66 1020.9
20260503052254 62 260 2.0 3.0 0.00 0.00 0.00 66 1020.9
20260503051755 62 261 2.0 4.0 0.00 0.00 0.00 65 1020.9
20260503051255 62 261 1.0 4.0 0.00 0.00 0.00 65 1020.8
20260503050825 63 261 3.0 4.0 0.00 0.00 0.00 66 1020.8
20260503050325 63 261 2.0 4.0 0.00 0.00 0.00 66 1020.7
20260503045853 63 262 2.0 6.0 0.00 0.00 0.00 66 1020.8
20260503045425 62 275 1.0 6.0 0.00 0.00 0.00 66 1020.7
20260503044925 62 275 4.0 6.0 0.00 0.00 0.00 67 1020.6
20260503044422 62 277 3.0 4.0 0.00 0.00 0.00 68 1020.6
20260503043954 62 277 1.0 4.0 0.00 0.00 0.00 68 1020.7
20260503043454 62 277 2.0 4.0 0.00 0.00 0.00 68 1020.7
20260503042955 62 277 2.0 4.0 0.00 0.00 0.00 69 1020.6
20260503042526 62 277 2.0 4.0 0.00 0.00 0.00 69 1020.7
20260503041954 62 277 2.0 4.0 0.00 0.00 0.00 69 1020.7
20260503041454 62 277 2.0 4.0 0.00 0.00 0.00 69 1020.7
20260503041027 62 278 1.0 4.0 0.00 0.00 0.00 69 1020.8
20260503040523 62 278 2.0 4.0 0.00 0.00 0.00 69 1020.8
20260503040026 62 278 1.0 3.0 0.00 0.00 0.00 69 1020.8
20260503035527 62 278 1.0 3.0 0.00 0.00 0.00 69 1020.8
20260503034958 62 0 0.0 3.0 0.00 0.00 0.00 69 1020.7
20260503034527 62 278 1.0 3.0 0.00 0.00 0.00 69 1020.7
20260503033956 62 278 2.0 3.0 0.00 0.00 0.00 69 1020.7
20260503033525 62 278 2.0 3.0 0.00 0.00 0.00 69 1020.7
20260503033025 62 278 2.0 2.0 0.00 0.00 0.00 71 1020.8
20260503032455 62 0 0.0 2.0 0.00 0.00 0.00 70 1020.7
20260503031955 62 0 0.0 3.0 0.00 0.00 0.00 70 1020.6
20260503031456 62 0 0.0 3.0 0.00 0.00 0.00 70 1020.7
20260503031026 63 278 1.0 0.0 0.00 0.00 0.00 70 1020.7
20260503030523 63 0 0.0 2.0 0.00 0.00 0.00 69 1020.6
20260503025956 63 0 0.0 2.0 0.00 0.00 0.00 69 1020.5
20260503025454 63 0 0.0 0.0 0.00 0.00 0.00 69 1020.4
20260503025025 63 0 0.0 0.0 0.00 0.00 0.00 69 1020.4
20260503024454 64 0 0.0 0.0 0.00 0.00 0.00 69 1020.3
20260503024025 64 0 0.0 0.0 0.00 0.00 0.00 68 1020.3
20260503023454 64 0 0.0 0.0 0.00 0.00 0.00 67 1020.3
20260503023025 65 0 0.0 0.0 0.00 0.00 0.00 66 1020.2
20260503022528 65 0 0.0 0.0 0.00 0.00 0.00 65 1020.2
20260503022025 65 0 0.0 0.0 0.00 0.00 0.00 64 1020.2
20260503021458 66 0 0.0 0.0 0.00 0.00 0.00 63 1020.1
20260503020954 66 0 0.0 1.0 0.00 0.00 0.00 63 1020.0
20260503020553 67 0 0.0 1.0 0.00 0.00 0.00 61 1020.0
20260503020125 67 278 1.0 1.0 0.00 0.00 0.00 60 1020.0
20260503015622 67 0 0.0 1.0 0.00 0.00 0.00 59 1020.0
20260503015152 68 0 0.0 0.0 0.00 0.00 0.00 58 1019.9
20260503014654 68 0 0.0 0.0 0.00 0.00 0.00 57 1019.9
20260503014154 68 0 0.0 1.0 0.00 0.00 0.00 56 1019.9
20260503013654 69 0 0.0 1.0 0.00 0.00 0.00 56 1019.9
20260503013156 70 0 0.0 1.0 0.00 0.00 0.00 55 1019.7
20260503012724 71 0 0.0 1.0 0.00 0.00 0.00 53 1019.7
20260503012225 71 0 0.0 1.0 0.00 0.00 0.00 51 1019.7
20260503011725 72 0 0.0 3.0 0.00 0.00 0.00 50 1019.7
20260503011153 72 278 1.0 3.0 0.00 0.00 0.00 48 1019.6
20260503010656 72 278 2.0 3.0 0.00 0.00 0.00 47 1019.6
20260503010155 73 278 2.0 3.0 0.00 0.00 0.00 47 1019.5
20260503005654 74 277 1.0 3.0 0.00 0.00 0.00 46 1019.5
20260503005155 74 277 2.0 6.0 0.00 0.00 0.00 45 1019.5
20260503004655 75 277 2.0 6.0 0.00 0.00 0.00 44 1019.4
20260503004156 76 278 3.0 5.0 0.00 0.00 0.00 42 1019.5
20260503003654 76 300 3.0 5.0 0.00 0.00 0.00 40 1019.4
20260503003227 76 300 2.0 5.0 0.00 0.00 0.00 40 1019.3
20260503002655 76 300 2.0 5.0 0.00 0.00 0.00 41 1019.4
20260503002251 76 263 3.0 6.0 0.00 0.00 0.00 40 1019.4
20260503001826 76 263 3.0 6.0 0.00 0.00 0.00 40 1019.4
20260503001326 77 300 4.0 6.0 0.00 0.00 0.00 40 1019.4
20260503000755 77 297 1.0 8.0 0.00 0.00 0.00 40 1019.5
20260503000254 77 289 1.0 8.0 0.00 0.00 0.00 39 1019.5
20260502235755 77 282 1.0 8.0 0.00 0.00 0.00 40 1019.5
20260502235255 77 315 4.0 8.0 0.00 0.00 0.00 40 1019.5
20260502234755 77 325 5.0 7.0 0.00 0.00 0.00 40 1019.5
20260502234328 77 253 1.0 6.0 0.00 0.00 0.00 39 1019.6
20260502233827 77 247 3.0 7.0 0.00 0.00 0.00 40 1019.6
20260502233251 77 282 1.0 9.0 0.00 0.00 0.00 39 1019.6
20260502232825 77 297 2.0 9.0 0.00 0.00 0.00 38 1019.7
20260502232351 77 298 4.0 9.0 0.00 0.00 0.00 37 1019.7
20260502231855 78 286 1.0 6.0 0.00 0.00 0.00 38 1019.7
20260502231354 77 336 4.0 6.0 0.00 0.00 0.00 39 1019.7
20260502230926 77 348 1.0 9.0 0.00 0.00 0.00 39 1019.7
20260502230427 76 352 3.0 9.0 0.00 0.00 0.00 39 1019.7
20260502225951 77 306 3.0 9.0 0.00 0.00 0.00 39 1019.9
20260502225453 77 327 4.0 9.0 0.00 0.00 0.00 40 1019.9
20260502225026 77 304 2.0 11.0 0.00 0.00 0.00 39 1019.7
20260502224453 77 329 6.0 11.0 0.00 0.00 0.00 39 1019.8
20260502224028 77 318 4.0 8.0 0.00 0.00 0.00 40 1019.8
20260502223454 77 5 2.0 9.0 0.00 0.00 0.00 39 1019.9
20260502222955 77 19 4.0 12.0 0.00 0.00 0.00 40 1019.8
20260502222527 77 301 9.0 12.0 0.00 0.00 0.00 40 1020.0
20260502222026 77 318 4.0 10.0 0.00 0.00 0.00 38 1020.0
20260502221453 78 306 7.0 8.0 0.00 0.00 0.00 38 1020.0